Lid_Strength_Index
10 13 13 12 12 12 12 12 13 11 9 10 11 10 10 8 8 9 8 8 7 6 4 3 3 2 3 3 3 3 4 4 4 5 5 4 4 5 4 3 2 2 2 2
12 13 11 10 11 11 12 12 13 11 9 10 11 11 11 9 9 8 8 8 7 7 6 4 3 3 4 4 4 4 4 4 4 4 4 3 3 3 3 4 3 3 2 1
13 11 9 10 11 12 12 12 12 12 10 10 12 13 12 9 8 8 7 7 6 6 6 5 4 4 4 4 4 4 3 3 3 3 4 3 3 3 3 4 4 2 1 1
13 10 11 11 12 11 14 10 10 11 12 15 12 16 13 10 10 9 8 7 7 6 5 5 4 4 4 3 3 4 3 3 2 3 4 4 4 4 5 4 3 2 1 0
13 12 12 13 11 11 12 9 10 11 12 14 14 15 13 11 11 10 9 8 7 6 5 5 4 4 3 3 3 3 3 3 3 3 3 3 4 4 3 3 2 2 1 0
12 10 11 11 10 10 9 10 11 12 13 17 13 14 14 13 10 9 8 7 7 6 5 5 4 3 4 3 3 3 3 3 3 3 3 3 3 3 3 3 3 2 2 1
12 12 11 10 12 10 11 14 17 18 18 18 12 15 13 11 10 8 8 7 7 6 6 5 5 4 4 4 3 3 3 3 3 3 2 3 3 3 3 3 3 2 2 1
14 15 12 11 11 13 13 13 17 20 20 18 13 17 13 9 9 8 6 6 6 6 5 5 5 5 5 4 4 3 3 3 3 3 3 3 2 2 2 2 2 2 2 1
14 14 10 10 10 10 13 15 11 15 16 18 16 13 10 10 10 9 8 7 7 6 6 5 4 4 5 4 4 4 4 3 3 3 2 2 2 2 1 1 2 2 2 1
10 14 10 10 10 10 11 10 15 15 20 21 17 16 15 11 11 10 9 8 7 6 6 5 5 4 4 5 4 4 4 4 3 3 3 2 1 1 1 1 2 3 2 2
10 12 12 10 12 13 13 13 13 12 15 19 20 17 11 10 10 10 10 7 7 6 5 5 5 4 4 4 5 5 4 4 4 3 3 2 2 1 1 1 2 3 2 2
10 11 14 12 10 10 11 12 11 16 17 15 16 15 10 10 9 9 9 8 6 6 5 5 4 4 5 4 4 5 5 4 4 2 2 2 1 1 2 2 3 2 3 3
10 13 16 14 12 10 12 12 11 11 13 16 18 16 9 9 10 9 10 9 8 6 6 5 5 5 4 4 4 4 4 4 4 3 3 2 2 2 2 2 3 3 3 3
8 13 15 16 14 12 13 12 11 11 16 15 14 13 10 10 9 9 9 9 9 8 7 7 5 4 4 3 3 3 3 3 3 3 3 3 3 3 2 3 3 3 3 3
10 15 13 12 10 10 11 12 12 13 13 14 13 12 10 9 9 9 8 9 9 8 7 7 6 6 5 5 4 3 3 3 3 3 4 4 5 5 6 6 6 6 6 6
10 15 13 14 11 10 12 11 11 11 12 12 11 11 8 8 9 9 8 9 8 8 8 6 6 6 5 4 5 5 6 6 6 5 7 7 7 7 7 8 7 7 8 8
13 13 15 17 13 12 16 13 11 11 11 12 13 11 8 9 9 9 9 9 9 8 8 7 6 5 4 6 5 5 5 5 7 7 7 8 8 8 8 8 9 9 9 9
13 13 14 16 15 20 13 9 9 10 10 9 10 9 9 9 8 8 9 9 8 8 7 6 5 5 6 5 6 6 6 7 7 8 8 8 8 8 8 9 9 9 9 9
9 12 15 18 17 14 13 11 11 11 11 9 10 9 9 9 9 9 8 9 8 7 6 5 6 5 5 5 6 7 8 8 8 9 8 8 8 9 9 10 9 9 9 10
10 10 14 16 19 20 13 9 7 8 14 9 9 9 9 9 12 10 8 7 6 5 4 6 7 6 6 6 6 7 8 8 9 9 10 9 9 9 9 8 9 9 9 9
14 14 16 16 18 15 10 8 7 16 14 8 8 8 9 10 9 8 7 6 5 5 6 6 6 6 7 7 7 8 8 9 9 9 9 8 7 7 8 8 8 10 11 12
14 16 16 15 17 19 8 9 12 10 8 8 7 8 9 9 8 8 7 6 5 5 5 5 6 8 8 9 9 9 9 8 8 8 8 8 8 8 9 10 11 12 13 14
14 12 14 13 14 9 8 8 7 6 7 7 7 6 6 8 8 7 6 6 6 6 6 7 8 9 8 8 7 9 8 8 8 8 10 11 11 11 11 11 13 13 13 14
10 8 12 12 9 8 7 6 6 6 6 6 6 6 7 8 7 7 7 7 8 8 8 8 8 8 8 8 8 8 9 10 11 13 13 13 14 14 14 14 14 14 15 15
9 9 11 11 9 8 7 7 6 6 5 6 5 6 6 6 7 7 7 8 8 9 10 10 11 10 10 9 10 10 12 12 14 14 14 15 15 16 17 17 17 17 16 15
8 10 12 12 8 8 8 7 6 7 6 5 6 6 5 6 7 8 8 9 11 12 13 14 14 14 14 14 14 13 13 13 15 15 15 15 16 16 17 17 17 15 16 16